Home   Weather   Maputo   Past weeks
Flag for Mozambique

Past Weather in Maputo, Mozambique — Yesterday and Last 2 Weeks

Now
79 °F

Partly sunny.


Feels Like: 79 °F
Forecast: 78 / 58 °F
Wind: 13 mph from South

Location: Maputo / Mavalane

Current Time: Jun 19, 2019 at 2:09:39 pm

Latest Report: Jun 19, 2019 at 1:00 pm


Visibility: N/A

Pressure: 30.36 "Hg

Humidity: 37%

Dew Point: 50 °F

Location of MaputoLocation

Past Weather in Maputo — Graph

°F

Maputo Temperature Yesterday

Maximum temperature yesterday: 79 °F (at 1:00 pm)
Minimum temperature yesterday: 54 °F (at 3:00 am)
Average temperature yesterday: 65 °F

High & Low Weather Summary for the Past Weeks

 TemperatureHumidityPressure
High91 °F (Jun 5, 2:00 pm)100% (Jun 5, 5:00 am)30.48 "Hg (Jun 5, 5:00 am)
Low52 °F (Jun 16, 4:00 am)23% (Jun 5, 2:00 pm)29.86 "Hg (Jun 5, 4:00 pm)
Average69 °F68%30.24 "Hg
* Reported Jun 4 12:00 pm — Jun 19 12:00 pm, Maputo. Weather by CustomWeather, © 2019

Note: Actual official high and low records may vary slightly from our data, if they occured in-between our weather recording intervals... More about our weather records

Advertising

Maputo Weather History for the Previous 24 Hours

Scroll right to see more
 ConditionsComfort  
Time TempWeatherWind HumidityBarometerVisibility
12:00 pm
Wed, Jun 19
77 °FPartly sunny.12 mph44%30.39 "HgN/A
11:00 am75 °FScattered clouds.12 mph50%30.42 "HgN/A
10:00 am73 °FScattered clouds.15 mph57%30.42 "HgN/A
9:00 am68 °FPartly sunny.13 mph69%30.42 "HgN/A
8:00 am66 °FScattered clouds.10 mph73%30.39 "HgN/A
7:00 am63 °FScattered clouds.12 mph77%30.39 "HgN/A
6:00 am61 °FClear.9 mph83%30.36 "Hg10 mi
5:00 am63 °FClear.14 mph83%30.36 "Hg10 mi
4:00 am61 °FClear.10 mph88%30.36 "Hg10 mi
3:00 am61 °FClear.9 mph83%30.36 "Hg10 mi
1:00 am59 °FPassing clouds.6 mph82%30.39 "HgN/A
12:00 am59 °FPassing clouds.9 mph88%30.39 "HgN/A
11:00 pm
Tue, Jun 18
59 °FPassing clouds.6 mph88%30.36 "HgN/A
10:00 pm61 °FPassing clouds.3 mph88%30.36 "HgN/A
9:00 pm61 °FClear.2 mph83%30.36 "Hg10 mi
8:00 pm61 °FPassing clouds.2 mph77%30.33 "HgN/A
7:00 pm63 °FPassing clouds.2 mph77%30.33 "HgN/A
6:00 pm66 °FPassing clouds.2 mph68%30.30 "HgN/A
5:00 pm73 °FPassing clouds.6 mph53%30.30 "HgN/A
4:00 pm77 °FPassing clouds.6 mph44%30.27 "HgN/A
3:00 pm79 °FPassing clouds.7 mph42%30.27 "HgN/A
2:00 pm77 °FPassing clouds.8 mph47%30.27 "HgN/A
Weather by CustomWeather, © 2019

See weather overview